Zurück zum Katalog

PEARL-1B

AktivKommunikationSSO
NORAD 68980·PAYLOAD·🇰🇷 South Korea

Gestartet May 3, 2026 von Vandenberg Space Force Base

Loading…

Nächste Überflüge (nächste 24 Stunden)

TLE

AktuellSource: Space-Track

Epoche: Sep 13, 2026, 23:34 UTC

1 68980U 26100A   26256.98198678  .00001627  00000-0  17069-3 0  9999
2 68980  97.7237 152.5003 0006302 202.2181 157.8765 14.90861110 19911

Verfolge PEARL-1B in Echtzeit mit AllMySat

Download on the App Store